Tracking 27422 objects as of 31-May-2023
HD Live streaming from Space Station
objects crossing your sky now

ORBICRAFT-ZORKIY

Track ORBICRAFT-ZORKIY now!
10-day predictions
ORBICRAFT-ZORKIY is classified as:


NORAD ID: 47960
Int'l Code: 2021-022AE
Perigee: 518.0 km
Apogee: 544.9 km
Inclination: 97.5 °
Period: 95.1 minutes
Semi major axis: 6902 km
RCS: Unknown
Launch date: March 22, 2021
Source: (TBD)
Launch site: TYURATAM MISSILE AND SPACE COMPLEX (TTMTR)

Uplink (MHz):
Downlink (MHz): 437.850/437.950/10465.000
Beacon (MHz):
Mode: 2k4/4k8/9k6FSK SSTV
Call sign: RS15S
Status: Active

Your satellite tracking list
Your tracking list is empty




NASA's NSSDC Master Catalog

Two Line Element Set (TLE):
1 47960U 21022AE  23150.74449609  .00008863  00000-0  49078-3 0  9993
2 47960  97.5025  48.9135 0019437  38.9042 321.3584 15.13899569119920
Source of the keplerian elements: AMSAT